Orbital Elements at Epoch 2459200.5 (2020-Dec-17.0) TDB
Reference: JPL 20 (heliocentric ecliptic J2000)
Element | Value | Uncertainty (1-sigma) | Units |
e | .1945623318430538 | 4.171e-08 | |
a | 2.707431118629147 | 1.1892e-08 | au |
q | 2.180667006884212 | 1.1327e-07 | au |
i | 10.91069696654008 | 4.1739e-06 | deg |
node | 255.2308461559736 | 2.5033e-05 | deg |
peri | 96.19560804253287 | 2.8412e-05 | deg |
M | 95.36760453912865 | 1.1143e-05 | deg |
tp | 2458769.444764181295 (2019-Oct-12.94476418) | 5.0315e-05 | TDB |
period | 1627.176079808783 4.45 | 1.0721e-05 2.935e-08 | d yr |
n | .2212421903610489 | 1.4577e-09 | deg/d |
Q | 3.234195230374082 | 1.4206e-08 | au |
|
| | Orbit Determination Parameters
Additional Information
|